Theta_e
333 334 335 338 348 350 337 337 334 336 338 338 336 334 335 335 339 338 336 342 344 345 337 331 328 330 332 333 333 334 334 334 335 338 338 339 339 340 341 341 342 342 342 342 342 342 342 342 341
339 341 338 339 343 337 334 335 334 335 336 337 337 336 338 337 336 335 343 346 345 341 333 336 339 330 331 333 334 335 336 337 340 340 341 341 341 341 339 340 340 341 342 341 341 341 341 341 341
339 340 348 348 350 329 331 334 334 334 337 338 340 339 336 337 336 335 344 341 340 337 335 339 335 338 332 333 336 340 337 339 340 341 339 339 340 339 339 339 338 337 337 338 338 340 340 340 340
338 340 345 349 346 337 332 333 335 337 336 338 338 342 338 338 339 340 341 344 343 343 341 339 338 342 336 338 342 341 339 340 340 337 337 336 335 332 331 327 325 324 331 333 336 337 338 338 337
338 341 346 348 346 341 338 338 340 345 344 340 337 339 339 339 339 341 344 344 342 342 344 340 341 342 340 341 341 340 340 339 337 337 334 331 327 326 324 323 320 322 325 327 328 331 330 327 328
338 342 347 348 346 343 339 342 344 346 344 344 344 339 339 340 341 341 336 338 340 343 345 342 342 340 340 336 338 339 337 332 329 330 330 329 326 326 324 321 318 319 322 323 324 326 326 321 318
337 341 346 345 346 345 341 343 346 345 346 344 342 348 342 342 342 334 329 326 325 324 331 340 339 339 336 334 331 330 329 328 328 329 327 326 328 328 324 320 319 320 320 320 320 320 320 322 324
337 343 348 345 342 346 340 342 344 345 344 338 343 347 344 341 332 328 326 325 323 323 325 326 334 342 337 334 330 328 327 327 327 324 322 321 326 324 320 321 320 321 321 322 321 322 322 322 322
337 344 348 346 345 342 339 343 343 343 342 340 336 340 340 331 327 325 324 323 322 325 328 328 330 331 340 335 333 331 330 327 323 320 321 321 321 321 322 322 322 323 323 323 322 321 321 320 320
341 341 344 342 341 340 341 341 344 345 344 343 342 340 330 327 325 324 324 323 323 324 327 329 330 330 328 332 329 326 327 324 322 321 321 324 322 322 323 322 322 321 320 321 320 320 321 320 321
339 338 336 340 338 338 340 342 341 343 346 343 343 334 328 327 325 324 324 323 322 323 326 327 328 328 327 327 326 325 324 323 322 322 321 324 323 322 322 323 321 321 320 320 320 320 320 320 320
335 336 337 338 338 339 340 341 344 343 343 341 338 330 327 327 327 325 324 324 323 322 324 325 327 327 326 326 325 324 322 323 322 322 323 321 321 319 321 322 322 320 320 321 321 320 321 321 320
337 337 336 336 339 340 343 344 345 345 343 339 335 330 327 327 327 327 326 326 325 323 323 324 323 326 324 325 324 323 323 323 323 322 321 321 319 319 321 322 320 320 321 320 319 319 319 320 321
340 337 338 336 339 342 345 344 344 345 343 342 335 330 328 328 329 328 328 327 326 324 321 324 323 323 324 323 323 322 322 321 323 322 320 321 320 319 321 321 319 319 322 319 318 316 319 319 319
340 339 339 338 341 343 342 346 348 345 344 343 338 332 330 330 331 330 329 328 326 325 321 321 324 324 323 322 323 321 322 321 324 321 320 320 320 318 321 320 319 318 320 318 318 315 318 318 318
344 343 349 340 342 342 336 348 348 345 345 344 340 334 332 331 332 331 330 329 327 325 322 322 322 324 324 323 322 322 321 321 321 321 320 320 320 318 319 321 319 318 319 318 315 315 316 316 318
342 350 349 347 341 341 341 345 347 344 344 343 341 339 334 333 332 332 331 329 328 326 324 322 321 323 323 323 322 322 321 321 322 321 321 319 320 318 317 320 317 319 317 314 314 314 314 316 316
343 347 345 347 342 341 341 344 346 345 345 343 342 342 336 334 333 332 331 330 329 327 325 323 322 323 323 322 323 322 321 322 321 321 321 320 320 318 317 318 316 317 317 313 313 313 313 313 314
338 337 342 341 338 334 338 349 348 345 344 344 343 342 340 338 334 333 331 331 330 329 326 324 323 323 323 321 321 321 322 321 322 321 321 320 319 318 318 318 316 317 317 313 312 313 313 313 313
333 335 334 335 336 333 340 345 347 344 343 340 343 343 342 337 336 334 332 332 331 329 327 325 324 321 322 324 323 323 323 323 322 321 321 321 320 318 317 317 317 316 316 313 312 313 313 313 312
334 334 335 342 339 340 340 340 350 344 341 339 339 342 339 339 337 335 333 333 332 330 327 326 324 324 321 324 324 323 325 324 322 322 320 321 320 319 317 317 317 316 316 313 312 313 314 314 312
335 335 336 336 343 344 343 341 350 346 344 342 339 339 337 340 338 336 335 334 334 332 328 326 324 324 322 322 324 324 324 323 322 321 320 323 320 319 317 317 317 315 316 314 314 313 314 313 314
334 336 336 338 342 342 345 342 350 346 345 342 339 338 338 340 339 338 336 335 335 331 328 327 325 323 322 322 322 323 323 322 322 320 322 321 320 319 317 316 316 316 315 316 315 314 313 312 314
335 339 342 340 342 346 343 343 350 347 346 343 340 339 339 338 340 338 336 335 334 331 328 326 325 325 324 323 324 324 323 322 322 323 322 321 321 319 318 316 317 317 317 316 316 315 314 313 314
334 336 340 340 350 351 343 346 343 339 335 333 341 339 337 337 339 338 335 335 332 331 328 327 326 325 324 323 323 323 323 322 323 324 320 320 321 320 319 318 317 317 317 315 315 316 315 315 313
336 337 338 341 344 340 341 346 341 336 335 336 334 337 335 332 337 335 335 333 332 330 328 327 326 325 324 323 323 323 323 322 323 322 318 320 321 319 319 318 318 317 317 316 315 315 315 315 314
337 336 337 341 338 339 339 345 338 338 340 340 334 334 335 333 335 334 334 332 332 331 329 328 326 325 325 323 323 323 323 322 321 321 321 319 319 319 318 318 319 318 316 316 315 315 315 315 315
335 335 341 340 340 342 341 342 338 339 342 338 337 334 335 334 336 334 334 333 333 332 331 328 326 326 324 323 323 323 323 322 321 321 321 321 320 318 319 319 319 318 317 316 316 315 315 314 315
336 342 342 343 339 344 346 339 337 336 336 335 334 335 335 333 336 336 334 335 334 333 332 329 326 324 324 323 323 323 323 322 322 322 321 321 321 319 319 320 319 319 318 317 317 316 315 314 315
336 339 339 344 342 340 341 339 340 337 336 338 336 337 336 335 335 336 333 334 334 334 332 329 325 325 324 323 323 322 322 322 322 322 322 322 321 321 321 320 320 319 318 318 318 317 317 316 316
Wind_Speed
5 5 2 4 4 1 3 9 15 12 15 18 21 16 15 14 6 9 17 28 23 16 11 7 5 3 3 4 4 5 6 7 7 9 10 11 11 11 11 12 12 12 11 11 11 10 9 9 10
10 5 1 3 2 1 2 10 14 15 15 18 20 15 19 18 14 6 17 27 23 14 10 9 6 3 1 2 3 5 5 6 7 7 8 10 10 10 11 12 13 13 13 13 12 11 10 10 10
18 25 3 5 2 4 5 7 13 16 17 17 9 14 6 7 11 8 28 18 3 2 2 6 6 2 2 1 3 4 5 6 7 8 8 8 9 10 10 11 13 13 13 14 13 12 11 11 11
12 13 4 4 9 9 6 10 20 21 19 19 13 10 13 19 9 17 16 14 17 13 9 8 9 4 4 4 3 2 4 4 5 7 8 8 9 10 12 14 16 17 15 13 12 12 11 12 12
14 5 6 9 9 8 13 17 19 22 11 17 12 10 8 17 16 13 21 17 14 9 7 9 9 8 6 5 4 3 3 5 7 7 8 9 11 11 13 15 19 20 14 13 13 13 14 14 12
5 4 3 4 13 9 8 21 27 20 14 11 7 10 4 14 16 16 23 21 14 9 8 8 10 7 7 10 9 10 11 13 13 12 11 11 9 10 11 15 19 21 17 15 14 14 15 15 15
9 8 6 10 7 4 10 17 13 15 16 3 2 9 5 12 14 24 25 25 21 20 17 11 8 6 10 12 15 16 16 16 15 16 14 18 9 10 10 13 18 20 17 19 18 21 21 21 19
6 3 6 5 9 0 9 8 14 14 5 8 7 2 4 5 26 25 22 21 22 19 15 11 12 4 9 12 16 17 15 12 12 11 13 16 12 8 15 11 15 18 17 19 22 22 21 21 23
5 4 2 4 5 4 11 9 4 14 14 7 6 5 11 22 24 27 26 23 18 20 18 12 10 20 8 9 12 15 14 12 15 16 15 14 14 10 18 14 13 16 17 16 18 20 16 21 21
6 5 12 17 10 13 14 15 15 13 15 11 8 10 21 23 21 23 22 21 20 17 18 14 11 12 18 11 14 15 15 14 15 17 11 17 14 11 16 16 18 17 18 20 20 21 19 18 18
1 5 7 5 9 15 11 13 11 14 13 13 13 13 16 20 21 22 22 20 19 16 15 14 9 9 15 16 13 14 9 10 11 15 14 17 17 10 14 17 18 19 20 20 19 20 21 17 19
9 10 9 9 17 11 10 13 11 10 7 11 12 15 18 13 15 20 20 19 16 14 14 11 9 11 12 14 14 11 11 8 9 16 14 17 19 18 14 18 16 20 14 20 19 19 20 19 20
8 10 10 9 15 12 14 10 10 9 13 12 16 16 11 12 17 20 19 14 12 11 12 8 9 11 10 10 11 7 10 10 9 14 14 15 18 20 18 15 18 15 22 18 19 19 21 24 24
4 7 9 4 7 10 14 12 8 8 11 12 13 11 9 13 19 21 18 15 12 9 8 8 9 6 9 9 9 6 12 10 9 14 16 15 17 18 19 16 18 21 15 17 23 19 19 24 27
9 8 8 5 7 7 14 9 10 11 13 13 13 13 11 16 22 19 16 15 12 10 10 10 7 9 7 10 10 10 11 9 10 14 16 16 17 18 21 16 17 21 13 20 25 20 19 23 25
7 7 6 7 6 2 5 3 15 13 13 10 13 13 12 11 20 22 18 17 12 10 10 7 5 6 5 4 4 6 6 6 10 10 14 13 14 17 18 17 18 19 15 22 26 22 23 23 24
6 3 6 11 9 6 6 4 16 13 12 12 9 9 10 12 18 24 22 19 15 12 8 6 5 6 3 4 3 3 5 3 6 9 12 13 13 16 15 18 18 17 17 23 22 23 24 24 27
6 7 10 11 8 7 13 8 17 16 13 13 13 9 12 14 13 23 26 21 16 13 9 6 5 4 5 5 7 5 5 6 4 7 8 11 11 14 17 15 19 19 13 23 22 21 23 23 25
8 9 13 15 12 2 2 8 19 16 14 11 11 12 11 14 19 25 27 22 18 15 12 7 5 4 5 5 4 4 4 4 4 8 7 9 11 11 14 14 17 18 12 23 21 20 21 25 28
2 3 5 7 4 5 7 3 16 18 14 8 17 14 13 13 16 21 27 24 24 19 15 10 6 4 3 5 2 2 6 1 7 10 6 6 7 9 11 14 15 16 13 20 20 19 20 18 23
3 3 6 11 5 4 5 9 18 15 11 9 9 16 13 21 17 16 22 26 28 24 19 12 7 5 3 2 1 1 2 4 3 5 8 3 3 6 9 12 12 15 14 19 16 17 17 15 18
2 2 5 17 7 4 5 5 2 13 14 14 12 12 12 18 17 17 22 25 29 24 21 14 9 8 5 4 3 4 5 8 6 5 5 7 4 5 8 11 11 13 13 15 14 15 14 14 12
3 8 13 9 5 3 1 3 14 20 8 11 12 13 14 20 21 18 23 27 31 28 22 18 11 9 6 5 4 2 2 3 3 6 6 9 9 5 9 10 9 10 12 13 12 10 10 13 11
4 6 4 4 4 3 6 6 5 6 11 11 9 11 15 17 19 20 28 27 32 27 25 21 15 13 9 8 6 4 2 2 2 4 3 6 6 6 9 10 8 8 9 11 11 8 8 13 10
7 7 4 5 1 5 2 5 9 11 6 5 12 10 8 17 17 16 18 23 28 30 30 23 21 19 14 11 11 8 4 4 6 5 1 1 6 1 5 8 6 7 6 10 12 7 7 11 12
2 6 5 4 3 5 3 3 4 8 8 10 7 7 8 10 18 16 25 25 27 30 30 25 24 20 18 14 12 10 6 4 6 1 1 2 5 5 3 6 5 6 7 8 10 9 8 10 10
1 5 5 2 4 4 3 5 7 17 18 7 6 2 9 8 14 18 24 26 29 31 29 28 27 22 20 17 15 10 9 6 5 4 4 3 4 7 7 9 7 7 8 9 9 11 11 13 12
7 2 11 8 4 4 6 3 5 7 13 11 6 7 1 8 18 17 21 28 27 33 29 24 24 22 22 17 15 11 13 8 7 6 7 8 6 7 8 9 8 10 9 11 10 9 12 14 13
7 4 4 4 3 0 2 6 6 7 6 6 6 6 13 28 17 17 19 27 33 31 29 25 24 23 21 17 15 13 16 7 8 8 7 8 8 8 9 11 11 11 13 14 15 15 13 13 13
6 9 8 4 4 3 2 6 6 5 6 3 6 10 10 25 11 17 24 28 29 30 30 28 24 19 20 19 18 16 14 12 11 10 10 10 10 10 11 12 12 15 15 16 17 18 20 20 19
Wind_Direction
41 12 357 285 27 45 66 74 92 82 69 74 71 75 74 53 72 119 79 111 109 97 69 43 28 21 26 39 31 25 20 14 12 10 6 6 3 2 2 5 4 2 357 352 342 329 318 313 312
61 323 145 296 351 255 85 101 103 109 112 99 84 84 66 84 79 84 73 125 112 97 52 8 7 311 320 11 26 14 8 8 5 2 2 1 360 357 0 1 360 359 354 348 342 336 327 316 304
71 71 55 7 21 125 114 117 125 126 105 95 75 54 67 104 65 110 124 100 19 49 142 70 58 240 208 96 49 21 8 7 0 359 357 4 2 360 5 7 6 2 354 348 343 337 329 323 313
84 31 62 30 296 52 95 108 110 96 85 96 112 66 63 80 78 86 133 132 101 90 132 95 80 122 137 113 78 0 349 14 360 358 4 2 8 12 15 10 3 357 351 349 345 342 337 331 323
46 63 37 334 291 1 49 69 76 78 73 73 77 102 102 110 117 101 109 106 81 97 99 111 105 118 124 89 59 46 47 35 25 18 25 35 34 26 16 14 6 354 346 341 338 334 332 330 330
57 80 40 343 337 344 72 83 86 82 76 81 92 118 128 126 121 103 81 99 100 102 122 84 100 91 97 82 82 72 64 61 55 49 36 20 22 18 9 16 7 11 8 3 355 343 334 330 323
119 109 194 264 251 272 89 75 97 107 127 152 247 113 128 124 130 93 77 66 59 53 77 65 55 70 89 82 87 83 79 67 52 28 18 0 334 12 350 2 8 11 16 15 8 7 5 355 344
113 106 141 214 233 79 107 86 123 112 64 115 186 183 142 101 83 81 75 69 60 53 47 47 48 85 104 103 95 83 77 69 38 8 20 34 41 358 2 347 6 9 8 11 4 357 4 4 8
99 88 119 277 198 142 121 120 93 129 147 194 195 153 97 82 76 77 82 75 69 56 51 53 30 41 153 108 95 74 87 68 44 33 37 31 37 29 19 21 12 3 5 9 358 359 359 347 359
107 131 174 213 199 120 116 111 142 149 135 128 130 104 84 82 82 76 74 76 67 56 57 55 34 37 64 90 87 80 71 60 49 26 38 32 29 30 28 15 11 9 2 4 358 357 4 359 350
145 176 101 132 129 107 110 118 120 129 129 149 142 108 97 83 88 86 75 74 72 60 62 52 43 37 52 67 67 55 58 66 46 30 44 35 24 20 27 19 11 8 356 4 358 355 357 353 344
84 63 79 86 97 93 108 144 114 115 147 112 108 104 97 91 98 95 85 71 68 60 62 55 48 41 38 63 56 59 71 65 59 41 43 31 19 20 25 24 17 359 6 351 2 6 357 349 346
20 84 62 71 123 118 115 113 112 105 98 106 115 111 121 135 118 111 110 100 78 66 61 68 57 59 37 71 52 65 56 68 63 44 51 30 25 18 20 29 10 17 359 22 6 356 352 356 355
310 40 34 334 94 121 120 128 133 140 131 144 136 137 132 136 120 106 107 107 95 72 74 61 60 79 63 47 66 51 55 63 69 61 51 35 25 19 27 32 13 6 29 9 3 352 358 357 358
58 22 6 337 149 131 144 167 139 149 156 165 150 143 146 131 119 122 120 114 110 83 64 59 77 55 66 61 57 35 52 65 82 55 37 38 23 21 25 29 12 9 26 6 0 4 2 4 2
55 67 353 284 138 230 105 188 149 166 177 173 166 156 156 145 138 142 145 141 127 105 78 57 79 65 45 74 83 69 76 63 94 50 32 42 28 20 27 25 17 16 26 14 7 10 4 3 355
3 102 233 295 215 166 188 180 165 178 197 171 176 167 158 140 149 159 157 149 134 117 100 86 57 107 56 340 323 170 114 99 121 44 38 42 31 24 22 26 11 24 25 16 12 9 8 7 0
173 166 222 214 191 186 193 209 164 178 204 172 174 183 168 157 162 163 152 145 139 128 115 112 68 123 21 41 70 88 104 64 86 57 56 38 32 31 28 24 20 32 18 18 16 13 10 9 360
173 195 189 213 230 188 333 163 174 176 207 192 173 187 192 180 164 161 154 150 149 142 136 122 81 109 47 62 43 63 41 63 137 102 69 53 36 37 28 28 27 24 30 24 18 20 16 18 12
23 40 288 323 196 95 21 196 185 181 198 186 169 197 198 141 160 166 157 163 161 156 147 135 120 119 138 128 76 290 293 317 83 100 65 50 39 38 40 32 28 25 24 26 24 23 20 19 15
267 272 54 71 16 66 15 326 167 194 191 193 180 188 158 163 164 170 167 170 165 160 158 154 141 134 109 140 110 225 61 221 79 93 46 332 61 60 51 39 28 26 23 26 26 23 22 12 20
253 209 84 43 56 307 32 309 338 173 198 202 195 184 169 169 169 174 171 170 171 168 164 160 149 159 148 152 132 4 42 58 69 36 4 324 149 91 63 45 33 29 20 21 22 18 21 16 6
233 74 99 94 120 78 108 114 335 334 219 208 197 188 190 174 173 178 172 173 170 166 170 169 160 160 175 164 174 99 78 13 48 26 6 42 152 106 64 47 36 27 20 15 9 14 15 14 9
66 105 34 65 99 19 235 121 238 213 235 227 198 197 189 168 173 173 172 164 161 167 171 174 167 172 179 183 187 182 190 297 179 317 63 30 165 87 50 35 31 14 17 20 9 357 354 16 3
45 48 352 1 336 243 99 61 234 269 247 29 189 189 183 170 168 171 162 162 160 168 175 177 175 177 183 187 192 192 212 247 273 289 29 19 8 359 45 23 21 2 359 8 1 1 324 345 353
112 147 147 240 312 263 189 216 229 280 23 21 360 185 150 150 166 160 159 159 160 169 178 180 183 184 183 186 193 193 207 240 156 275 340 3 15 2 31 6 334 339 319 346 346 350 335 325 330
106 24 178 152 311 16 156 307 300 63 64 30 284 59 187 183 162 155 161 156 164 173 181 187 185 189 187 189 188 202 211 213 232 259 284 280 301 299 312 311 296 308 320 313 331 337 329 314 316
111 36 21 350 357 315 333 298 250 134 168 219 251 267 74 195 165 165 161 164 167 178 181 188 193 186 184 191 201 212 208 219 230 244 281 264 273 312 289 295 299 290 301 300 302 303 325 320 305
25 42 84 191 215 157 275 265 231 190 171 156 42 9 30 359 176 162 145 154 166 177 182 184 180 180 186 198 209 207 198 220 231 256 271 275 277 302 299 290 292 291 287 295 292 279 293 294 300
143 177 156 161 255 206 195 293 23 113 127 85 323 66 11 8 313 146 151 157 165 173 182 185 184 185 197 201 198 203 219 231 233 247 268 274 276 291 289 287 287 290 291 288 288 278 288 290 286